Location: Berg
(47.2344°N, 9.5296°E)
Time: 21:48:13
(UTC+00:00)

Okean O Rocket - Pass Details

Date: 24 January 2021
Orbit: 622 x 645 km, 98.2° (Epoch: 04 March)

Event Time Altitude Azimuth Distance (km) Brightness Sun altitude
Rises 17:59:49 0° 203° (SSW) 2,940 5.5 -18.1°
Reaches altitude 10° 18:02:32 10° 220° (SW) 2,034 4.9 -18.6°
Maximum altitude 18:05:48 20° 268° (W) 1,481 4.4 -19.1°
Drops below altitude 10° 18:09:05 10° 315° (NW) 2,037 4.7 -19.7°
Sets 18:11:49 0° 333° (NNW) 2,947 5.3 -20.1°
